User: anonymous   Login
Location: ????????
(37.6846°N, 24.0673°E)
Time: 22:29:46
(UTC+00:00)
Language:

Cosmos 2082 Rocket - Orbit

View from above orbital plane
View from above orbital plane
View from above satellite
View from above satellite

Ground track
Ground track

The orbit data is extracted from the following two-line orbital elements,

1 20625U 90046B   20272.10496332 -.00000284 +00000-0 -12277-3 0  9993
2 20625 070.9990 152.7397 0011815 084.5503 275.6967 14.14659079567136
Epoch (UTC): 28 September 2020 02:31:08
Eccentricity: 0.0011815
inclination: 70.9990°
perigee height: 835 km
apogee height: 852 km
right ascension of ascending node: 152.7397°
argument of perigee: 84.5503°
revolutions per day: 14.14659079
mean anomaly at epoch: 275.6967°
orbit number at epoch: 56713

The dashed part of the orbit path shows where the satellite is in the earth's shadow,  

DLR